User: anonymous   Login
Location: Kershaw
(34.5481°N, 80.5823°W)
Time: 16:18:26
(UTC+00:00)
Language:

Courier 1B Rocket - Orbit

View from above orbital plane
View from above orbital plane
View from above satellite
View from above satellite

Ground track
Ground track

The orbit data is extracted from the following two-line orbital elements,

1 00059U 60013B   22268.01581242  .00000128  00000-0  57696-4 0  9995
2 00059  28.2478 276.8598 0189282  49.0716 312.6053 13.53006103 58677
Epoch (UTC): 25 September 2022 00:22:46
Eccentricity: 0.0189282
inclination: 28.2478°
perigee height: 920 km
apogee height: 1202 km
right ascension of ascending node: 276.8598°
argument of perigee: 49.0716°
revolutions per day: 13.53006103
mean anomaly at epoch: 312.6053°
orbit number at epoch: 5867

The dashed part of the orbit path shows where the satellite is in the earth's shadow,  

DLR